This demonstration page uses our WeatherBlox Daily Observations layout. Learn more.

Left ArrowRight Arrow

Hourly Observations for April 27, 2015

Temp ( °F °C ) Dew Point ( °F °C ) Humidity (%) Winds ( mph kmh ) Pressure ( in mb ) Visibility ( mi km ) Precip ( " mm )
12:53 am 00:53 Clear 39 3.9 36 2.2 89 89 Calm 29.94 1014 10 16.0934 0 0
1:53 am 01:53 Mostly Clear 39 3.9 37 2.8 93 93 Calm 29.94 1014 10 16.0934 0 0
2:53 am 02:53 Mostly Cloudy 38 3.3 36 2.2 93 93 WNW 3 6 29.94 1014 10 16.0934 0 0
3:53 am 03:53 Clear 37 2.8 35 1.7 93 93 Calm 29.92 1013 10 16.0934 0 0
4:53 am 04:53 Clear 36 2.2 34 1.1 93 93 Calm 29.92 1013 10 16.0934 0 0
5:53 am 05:53 Clear 35 1.7 34 1.1 96 96 Calm 29.94 1014 10 16.0934 0 0
6:53 am 06:53 Sunny 35 1.7 34 1.1 96 96 Calm 29.95 1014 7 11.26538 0 0
7:53 am 07:53 Sunny 40 4.4 38 3.3 93 93 Calm 29.98 1015 10 16.0934 0 0
8:53 am 08:53 Sunny 46 7.8 41 5 83 83 Calm 30 1016 10 16.0934 0 0
9:53 am 09:53 Sunny 51 10.6 39 3.9 64 64 Calm 30 1016 10 16.0934 0 0
10:53 am 10:53 Sunny 55 12.8 38 3.3 53 53 NW 7 11 29.99 1016 10 16.0934 0 0
11:53 am 11:53 Sunny 58 14.4 38 3.3 48 48 WNW 9 15 29.98 1015 10 16.0934 0 0
12:53 pm 12:53 Mostly Sunny 59 15 37 2.8 44 44 WNW 12 19 30 1016 10 16.0934 0 0
1:53 pm 13:53 Sunny 61 16.1 38 3.3 43 43 NW 12 19 29.98 1015 10 16.0934 0 0
2:53 pm 14:53 Mostly Cloudy 62 16.7 39 3.9 43 43 NNW 9 15 29.98 1015 10 16.0934 0 0
3:53 pm 15:53 Cloudy 60 15.6 39 3.9 46 46 N 8 13 29.98 1015 10 16.0934 0 0
4:53 pm 16:53 Cloudy 59 15 39 3.9 48 48 NNW 13 20 29.99 1016 10 16.0934 0 0
5:53 pm 17:53 Cloudy 57 13.9 38 3.3 49 49 NNW 13 20 30.01 1016 10 16.0934 0 0
6:53 pm 18:53 Cloudy 56 13.3 38 3.3 51 51 N 14 22 30.02 1017 10 16.0934 0 0
7:53 pm 19:53 Cloudy 54 12.2 38 3.3 55 55 N 12 19 30.04 1017 10 16.0934 0 0
8:53 pm 20:53 Cloudy 53 11.7 38 3.3 57 57 N 10 17 30.05 1018 10 16.0934 0 0
9:53 pm 21:53 Cloudy 51 10.6 37 2.8 59 59 NNE 10 17 30.07 1018 10 16.0934 0 0
10:53 pm 22:53 Cloudy 50 10 38 3.3 63 63 NE 10 17 30.08 1019 10 16.0934 0 0
11:53 pm 23:53 Clear 45 7.2 37 2.8 74 74 NE 3 6 30.09 1019 10 16.0934 0 0

Powered by AerisWeather